User: anonymous   Login
Location: Kawakawa
(35.3830°S, 174.0670°E)
Time: 02:33:50
(UTC+13:00)
Language:

Tiangong 2 - Orbit

View from above orbital plane
View from above orbital plane
View from above satellite
View from above satellite

Ground track
Ground track

The orbit data is extracted from the following two-line orbital elements,

1 41765U 16057A   19080.16119632  .00004796  00000-0  59988-4 0  9998
2 41765  42.7838 131.8647 0007901   6.1836  41.6204 15.60981444143285
Epoch (UTC): 21 March 2019 03:52:07
Eccentricity: 0.0007901
inclination: 42.7838°
perigee height: 379 km
apogee height: 390 km
right ascension of ascending node: 131.8647°
argument of perigee: 6.1836°
revolutions per day: 15.60981444
mean anomaly at epoch: 41.6204°
orbit number at epoch: 14328

The dashed part of the orbit path shows where the satellite is in the earth's shadow,  

DLR